SCP
0 0 0 0 0 0 0 0 0 0 0 0 0 0 0 0 0 0 0 0 -0 0 0 0 0 0 0 0 0 0 -0 0 0 0 -0 -0 -0 -0 0 0 0 0 0 0 0 0 0 0 -0
0 0 0 0 0 0 0 0 0 0 0 0 0 0 0 0 0 0 0 0 0 0 0 0 0 0 0 0 0 0 0 0 0 0 0 0 -0 0 0 0 0 0 0 0 0 0 0 0 -0
0 0 0 0 0 0 0 0 0 0 0 0 0 0 0 0 0 0 0 0 0 0 0 0 0 0 0 0 0 0 0 0 0 0 0 0 0 0 0 0 0 0 0 0 0 0 0 0 0
0 0 0 0 0 0 0 0 0 0 0 0 0 0 0 -0 0 -0 0 0 0 0 0 0 0 0 0 0 0 0 0 0 0 0 0 0 0 0 0 0 0 0 0 0 0 0 0 0 0
0 0 0 0 0 0 0 0 0 0 0 0 0 0 0 0 0 0 0 0 0 0 0 0 0 0 0 0 0 0 0 0 0 0 0 0 0 0 0 0 0 0 0 0 0 0 0 0 0
0 0 0 0 0 0 0 0 0 0 0 0 0 0 0 0 0 0 0 0 0 0 0 0 0 0 0 0 0 0 0 0 0 0 0 0 0 0 0 0 0 0 0 0 0 0 0 0 0
0 0 0 0 0 0 0 0 0 0 0 0 0 0 0 0 0 0 0 0 0 0 0 0 0 0 0 0 0 0 0 0 0 0 0 0 0 0 0 0 0 0 0 0 0 0 0 0 0
0 0 0 0 0 0 0 0 0 0 0 0 0 0 0 0 0 0 0 0 0 0 -0 -0 0 0 0 0 0 0 0 0 0 0 0 0 0 0 0 0 0 0 0 0 0 0 0 0 0
0 0 0 0 0 0 0 0 0 0 0 0 0 0 0 0 0 0 0 0 0 0 0 0 0 0 0 0 0 0 0 0 0 0 0 0 0 0 0 0 0 0 0 0 0 0 0 0 0
0 0 0 0 0 0 0 0 0 0 0 0 0 0 0 0 0 0 0 0 0 0 0 0 0 0 0 0 0 0 0 0 0 0 0 0 0 0 0 0 0 0 0 0 0 0 0 0 0
0 0 0 0 0 0 0 0 0 0 0 0 0 0 0 0 0 0 0 0 0 0 0 0 0 0 0 0 0 0 0 0 0 0 0 0 0 0 0 0 0 0 0 0 0 0 0 0 0
0 0 0 0 0 0 0 0 0 0 0 0 0 0 0 0 0 0 0 0 0 0 0 0 0 0 0 0 0 0 0 0 0 0 0 0 0 0 0 0 0 0 0 0 0 0 0 0 0
0 0 0 0 0 0 0 0 0 0 0 0 0 0 0 0 0 0 0 0 0 0 0 0 0 0 0 0 0 0 0 0 0 0 0 0 0 0 0 0 0 0 0 0 0 0 0 0 0
0 0 0 0 0 0 0 0 0 0 0 0 0 0 0 0 0 0 0 0 0 0 0 0 0 0 0 0 0 0 0 0 0 0 0 0 0 0 0 0 0 0 0 0 0 0 0 0 0
0 0 0 0 0 0 0 0 0 0 0 0 0 0 0 0 0 0 0 0 0 0 0 0 0 0 0 0 0 0 0 0 0 0 0 0 0 0 0 0 0 0 0 0 0 0 0 0 0
0 0 0 0 0 0 0 0 0 0 0 0 0 0 0 0 0 0 0 0 0 0 0 0 0 0 0 0 0 0 0 0 0 0 0 0 0 0 0 0 0 0 0 0 0 0 0 0 0
0 0 0 0 0 0 0 0 0 0 0 0 0 0 0 0 0 0 0 0 0 0 0 0 0 0 0 0 0 0 0 0 0 0 0 0 0 0 0 0 0 0 0 0 0 0 0 0 0
0 0 0 0 0 0 0 0 0 0 0 0 0 0 0 0 0 0 0 0 0 0 0 0 0 0 0 0 0 0 0 0 0 0 0 0 0 0 0 0 0 0 0 0 0 0 0 0 0
0 0 0 0 0 0 0 0 0 0 0 0 0 0 0 0 0 0 0 0 0 0 0 0 0 0 0 0 0 0 0 0 0 0 0 0 0 0 0 0 0 0 0 0 0 0 0 0 0
0 0 0 0 0 0 0 0 0 0 0 0 0 0 0 0 0 0 0 0 0 0 0 0 0 0 0 0 0 0 0 0 0 0 0 0 0 0 0 0 0 0 0 0 0 0 0 0 0
0 0 0 0 0 0 0 0 0 0 0 0 0 0 0 0 0 0 0 0 0 0 0 0 0 0 0 0 0 0 0 0 0 0 0 0 0 0 0 0 0 0 0 0 0 0 0 0 0
0 0 0 0 0 0 0 0 0 0 0 0 0 0 0 0 0 0 0 0 0 0 0 0 0 0 0 0 0 0 0 0 0 0 0 0 0 0 0 0 0 0 0 0 0 0 0 0 0
0 0 0 0 0 0 0 0 0 0 0 0 0 0 0 0 0 0 0 0 0 0 0 0 0 0 0 0 0 0 0 0 0 0 0 0 0 0 0 0 0 0 0 0 0 0 0 0 0
0 0 0 0 0 0 0 0 0 0 0 0 0 0 0 0 0 0 0 0 0 0 0 0 0 0 0 0 0 0 0 0 0 0 0 0 0 0 0 0 0 0 0 0 0 0 0 0 0
0 0 0 0 0 0 0 0 0 0 0 0 0 0 0 0 0 0 0 0 0 0 0 0 0 0 0 0 0 0 0 0 0 0 0 0 0 0 0 0 0 0 0 0 0 0 0 0 0
0 0 0 0 0 0 0 0 0 0 0 0 0 0 0 0 0 0 0 0 0 0 0 0 0 0 0 0 0 0 0 0 0 0 0 0 0 0 0 0 0 0 0 0 0 0 0 0 0
0 0 0 0 0 0 0 0 0 0 0 0 0 0 0 0 0 0 0 0 0 0 0 0 0 0 0 0 0 0 0 0 0 0 0 0 0 0 0 0 0 0 0 0 0 0 0 0 0
0 0 0 0 0 0 0 0 0 0 0 0 0 0 0 0 0 0 0 0 0 0 0 0 0 0 0 0 0 0 0 0 0 0 0 0 0 0 0 0 0 0 0 0 0 0 0 0 0
0 0 0 0 0 0 0 0 0 0 0 0 0 0 0 0 0 0 0 0 0 0 0 0 0 0 0 0 0 0 0 0 0 0 0 0 0 0 0 0 0 0 0 0 0 0 0 0 0
0 0 0 0 0 0 0 0 0 0 0 0 0 0 0 0 0 0 0 0 0 0 0 0 0 0 0 0 0 0 0 0 0 0 0 0 0 0 0 0 0 0 0 0 0 0 0 0 0
Wind_Speed_500mb
5 7 6 3 4 8 5 7 5 6 3 3 14 14 16 10 3 6 33 20 20 28 28 21 17 14 14 15 16 17 18 18 18 18 17 15 13 11 13 12 12 16 19 19 21 22 21 19 21
3 5 5 3 7 4 9 5 12 9 22 33 23 14 11 5 10 24 38 26 18 21 25 19 16 18 17 17 18 19 20 20 20 20 20 20 19 18 17 15 13 12 12 10 11 13 17 16 15
5 7 3 6 5 7 9 7 11 20 38 8 10 13 10 16 16 34 27 34 24 25 22 17 16 19 18 18 18 18 19 19 19 18 18 19 20 22 22 21 20 19 18 17 18 17 16 16 13
7 5 5 6 8 7 9 9 13 20 8 12 27 11 9 8 25 22 35 34 28 22 22 18 15 18 18 18 18 17 18 20 21 19 19 20 21 22 21 21 21 22 22 22 22 23 21 17 13
9 4 4 2 7 7 7 18 29 13 15 19 16 9 8 13 15 29 32 33 25 22 21 19 17 18 18 19 21 24 23 23 21 19 19 23 20 20 21 22 22 22 22 22 22 22 20 19 17
6 4 4 7 9 8 8 35 21 13 20 23 15 20 12 27 24 36 29 33 23 14 23 23 24 22 24 27 26 20 19 18 18 17 17 17 16 14 12 11 15 14 14 14 13 14 13 14 15
10 7 9 8 7 7 9 30 15 17 17 17 31 10 10 31 33 34 31 33 25 24 27 29 28 25 26 24 20 18 14 12 12 7 2 1 1 3 5 7 9 9 9 9 9 9 8 8 9
10 7 8 8 8 10 10 30 28 30 15 19 31 15 13 49 46 38 38 37 30 30 29 28 26 24 22 21 18 14 10 6 4 2 2 3 5 6 7 7 7 7 7 6 6 5 6 5 5
12 6 9 10 12 12 12 11 12 22 25 18 29 14 9 52 54 50 53 47 39 35 30 30 27 25 24 21 15 7 4 3 2 2 2 4 5 6 6 7 5 4 6 6 6 5 3 1 2
11 9 18 9 10 7 13 19 30 18 21 12 27 20 37 59 64 63 64 59 48 40 38 33 30 27 28 21 14 6 1 1 2 1 2 4 5 6 6 7 8 11 14 14 14 13 11 7 4
13 12 10 12 10 16 7 15 22 32 7 26 44 36 72 71 70 66 66 60 47 45 44 40 34 28 28 22 16 8 4 2 4 3 2 1 1 4 9 12 15 16 19 19 20 19 17 15 13
8 15 19 9 8 2 7 11 10 43 19 44 37 40 79 81 79 72 68 65 60 53 51 42 38 31 28 25 18 11 7 3 4 6 6 4 2 7 13 16 19 20 22 20 20 20 21 20 19
9 9 19 9 1 6 5 4 9 14 12 28 38 54 74 80 78 70 63 58 60 55 52 46 42 36 30 26 20 15 10 5 8 11 11 8 6 11 15 17 18 17 17 15 17 18 20 24 27
15 18 10 16 11 2 7 2 14 5 5 28 45 57 71 74 74 70 66 66 63 56 51 41 39 38 32 26 20 16 11 8 12 15 14 12 11 12 15 14 12 10 9 10 13 17 22 27 30
15 12 2 9 15 7 11 7 8 6 8 38 49 56 61 64 65 63 64 64 59 58 52 46 37 43 33 26 21 17 14 15 15 17 16 14 13 12 11 8 5 2 5 10 14 18 22 25 29
14 10 12 9 15 2 6 9 4 7 16 30 39 48 53 56 61 58 56 53 50 55 52 46 39 32 30 25 19 17 18 17 17 18 18 16 14 13 10 6 5 7 10 12 16 21 26 31 36
4 10 7 7 10 8 6 8 8 8 18 20 31 41 48 52 48 59 57 53 45 50 55 42 44 35 32 26 22 20 20 19 19 19 18 16 14 13 12 11 12 14 16 19 24 28 32 37 41
8 11 5 10 12 2 6 8 8 21 18 30 36 47 52 54 53 54 55 52 49 57 53 40 40 36 32 30 27 22 23 23 23 21 19 17 16 16 15 17 19 22 24 27 31 33 35 41 46
7 12 10 5 10 9 18 14 22 25 21 26 32 28 43 42 51 49 52 54 59 59 50 46 43 43 40 37 29 21 22 24 24 21 18 16 14 16 19 24 28 29 29 32 37 39 39 41 47
12 12 9 2 4 2 9 18 12 16 17 35 44 36 35 34 44 49 57 66 64 59 52 49 45 40 33 26 18 15 19 20 18 18 19 19 20 21 25 29 30 32 34 38 41 41 41 42 45
9 12 8 7 5 6 7 12 11 8 23 19 21 24 29 27 43 56 67 73 68 60 54 50 40 28 26 26 21 18 22 21 23 27 26 25 27 30 33 35 36 38 41 43 44 43 43 44 45
11 10 10 12 9 8 5 8 9 7 10 6 15 22 21 23 31 56 68 76 70 60 53 40 28 23 23 23 20 17 17 22 25 26 27 32 36 38 41 42 44 44 45 45 44 45 44 44 43
12 9 13 9 8 4 3 3 11 2 10 12 10 13 14 17 21 43 65 77 69 56 44 33 23 20 20 20 22 20 19 19 24 28 30 35 38 42 46 48 50 49 48 47 44 41 42 46 51
14 14 16 9 6 4 12 11 10 10 12 7 7 8 9 12 18 29 51 67 62 52 41 29 24 23 26 31 32 32 31 30 31 33 36 38 41 41 42 43 45 48 43 36 38 43 47 50 53
9 12 5 2 5 9 5 7 15 9 7 10 15 8 6 13 22 35 52 61 55 47 38 31 30 32 35 38 40 40 38 37 36 37 40 40 38 37 37 38 36 37 40 45 49 52 52 53 57
8 13 10 11 9 8 4 12 10 6 7 21 22 14 9 9 18 43 50 52 48 42 37 35 35 34 33 31 30 29 31 34 38 39 38 37 37 36 36 37 40 43 46 49 50 53 56 59 61
8 8 6 8 6 5 7 9 8 7 9 14 22 22 22 23 29 46 48 43 38 35 32 29 25 24 22 21 19 19 21 25 29 33 35 35 36 37 39 39 42 46 48 51 57 63 66 66 67
7 11 8 3 7 8 6 6 9 10 12 10 12 25 30 33 37 38 37 35 32 28 24 19 15 12 9 9 12 17 21 25 28 31 34 35 36 37 39 41 46 51 56 61 63 66 67 68 69
5 5 4 8 6 8 0 10 10 19 19 21 22 33 36 36 36 35 33 30 26 23 20 17 13 9 10 14 21 27 30 32 32 36 36 37 37 38 41 46 51 53 56 59 63 65 66 66 67
4 3 7 8 7 5 7 10 5 13 19 36 37 39 38 35 33 30 28 27 25 22 18 12 8 13 17 22 26 31 32 33 34 36 34 32 34 40 46 48 54 59 62 61 61 63 62 61 63
Wind_Direction_500mb
314 218 247 263 53 64 244 242 161 167 103 24 97 114 122 63 110 181 139 139 142 169 166 186 176 165 145 127 122 118 114 110 104 102 106 112 115 108 111 113 102 98 93 84 82 87 95 93 85
174 173 204 153 98 70 262 227 182 197 140 110 85 88 62 99 125 142 152 149 146 156 165 169 165 154 141 130 121 114 108 103 99 96 95 95 94 93 96 101 100 94 93 91 71 85 102 111 107
186 203 191 105 138 190 219 212 182 153 147 127 109 75 128 139 143 146 152 144 142 145 153 157 151 147 142 136 126 118 111 105 99 97 95 93 90 89 90 93 95 93 88 83 81 84 104 117 122
201 188 88 112 225 238 208 192 169 144 189 167 131 76 112 112 148 147 145 146 147 141 152 157 152 148 146 140 132 123 115 107 101 97 94 92 88 83 81 93 95 97 91 86 84 84 89 103 124
192 167 70 181 252 260 241 188 173 161 155 158 148 168 138 172 158 154 149 151 149 141 150 157 154 149 146 138 128 119 110 102 95 89 90 95 99 102 99 95 97 95 90 88 87 87 87 89 95
171 147 95 221 240 247 266 182 175 163 160 152 116 130 148 181 179 161 149 153 152 133 143 145 142 136 134 129 122 116 113 102 91 99 106 107 111 112 112 89 91 90 91 94 100 100 98 90 92
161 120 209 195 247 289 207 181 175 171 172 189 149 120 171 186 187 161 156 162 157 154 147 146 144 138 137 134 132 127 118 110 103 104 137 203 199 132 128 114 102 94 98 106 116 110 109 96 98
212 121 174 222 217 261 194 175 202 175 193 169 170 162 188 182 176 166 169 171 168 161 157 156 155 153 150 147 139 133 120 110 95 42 63 98 127 136 141 143 137 128 115 116 108 115 111 91 98
191 98 194 212 162 249 176 168 169 181 156 170 191 186 187 173 173 174 177 179 178 173 171 169 168 162 161 163 157 143 99 105 90 47 62 116 135 142 168 166 163 121 100 99 96 97 89 97 256
171 162 209 216 192 242 270 190 151 155 161 205 193 195 166 173 178 183 184 182 184 183 184 180 180 171 170 171 171 161 180 339 323 326 126 117 140 147 151 134 111 98 91 87 81 78 70 62 44
191 197 199 254 261 280 257 185 167 139 223 199 195 177 170 176 183 191 193 190 192 193 190 187 185 178 178 186 186 189 204 258 287 257 195 214 176 133 120 114 108 100 92 84 78 73 67 55 41
177 213 182 220 327 307 169 176 171 166 203 209 203 188 174 181 187 194 200 197 200 198 197 189 187 185 186 192 191 194 210 247 264 240 243 258 221 133 123 119 110 106 96 85 74 61 50 36 25
211 191 195 167 354 345 186 179 209 204 207 180 191 179 182 185 191 197 204 207 208 204 200 194 190 186 191 195 202 205 213 245 250 234 238 240 193 148 132 125 117 107 90 73 59 46 36 28 20
205 194 214 202 183 267 115 343 168 170 194 176 185 186 187 188 193 198 204 212 215 212 206 209 201 194 196 206 211 217 224 239 245 230 231 213 181 159 143 133 122 102 81 51 33 22 17 16 13
207 143 223 222 183 188 120 352 339 323 178 177 185 188 192 196 195 204 209 215 223 225 212 208 215 197 202 207 218 222 231 242 233 220 208 194 183 173 159 152 135 73 15 7 3 358 358 356 0
149 112 161 200 153 216 161 224 263 146 169 189 190 194 199 201 205 210 219 225 224 218 211 213 225 218 203 212 218 228 232 237 224 208 200 196 191 189 193 210 250 301 322 331 332 335 341 343 346
239 174 162 171 207 139 130 214 231 122 163 182 193 196 199 206 213 217 222 227 224 213 208 214 219 208 206 207 213 224 232 225 213 208 207 205 208 216 229 254 276 294 304 315 322 325 329 333 335
175 119 88 154 197 51 146 209 258 192 192 184 189 203 203 207 216 218 221 224 222 208 206 219 204 203 206 210 211 217 216 211 207 211 221 223 230 241 257 273 289 297 304 313 316 315 320 327 328
175 137 149 228 181 148 199 211 221 218 232 230 212 221 222 211 219 220 218 218 204 200 205 199 199 202 208 211 215 221 226 216 214 219 231 237 247 264 276 288 296 296 296 305 307 307 312 319 324
204 178 179 44 112 125 166 242 234 210 238 238 238 244 222 217 207 210 204 198 197 199 200 199 202 206 211 227 234 236 223 218 227 239 243 243 252 268 284 289 294 295 293 300 304 305 308 315 322
192 156 168 161 77 49 100 306 247 224 226 225 233 234 210 213 205 200 200 198 197 199 202 202 199 207 219 219 228 226 218 231 238 243 254 264 268 275 284 287 291 289 288 293 298 299 303 309 315
210 166 136 132 128 195 165 257 258 265 235 195 153 167 181 198 204 207 205 199 199 202 200 197 203 217 224 230 237 250 261 262 258 261 270 269 268 272 275 278 278 278 279 286 287 290 295 301 307
232 146 164 145 98 122 226 126 259 170 242 215 184 173 188 203 219 217 210 202 199 199 195 197 209 219 229 235 242 257 270 278 274 269 274 277 272 274 277 275 273 274 276 276 276 282 291 297 301
143 75 51 54 77 260 214 166 271 200 214 173 184 187 210 223 227 219 210 194 191 192 195 203 213 222 230 234 241 248 257 263 267 266 272 277 279 278 279 272 267 267 270 269 278 285 291 295 298
103 93 56 67 207 228 150 142 249 300 247 182 162 162 219 216 211 199 192 187 189 193 198 205 214 224 231 234 239 246 253 258 261 266 272 273 272 274 273 270 265 267 273 280 286 291 294 296 296
180 158 156 180 174 204 86 221 251 304 45 120 130 123 122 155 178 179 179 181 187 192 199 208 215 221 227 233 241 249 256 263 269 273 273 271 272 273 274 276 281 286 289 291 293 293 294 294 293
182 187 227 65 42 100 211 290 309 72 77 108 124 121 109 122 145 163 169 176 182 189 196 200 207 219 230 241 251 262 273 279 282 283 283 283 285 286 287 289 290 291 292 292 293 292 293 292 292
166 177 78 101 217 226 278 278 237 209 192 165 145 133 132 134 143 153 162 174 181 185 189 195 205 219 234 260 279 291 296 297 296 296 299 298 294 290 290 290 291 292 293 294 294 294 293 291 291
129 138 130 133 132 157 348 265 214 205 188 180 177 164 157 152 151 154 161 169 179 188 196 202 208 226 265 289 299 302 303 301 297 299 302 298 293 292 295 297 298 299 300 300 298 296 295 294 293
133 202 192 121 206 94 136 278 350 253 178 172 176 176 173 170 169 175 181 186 187 188 189 202 247 283 290 296 301 299 294 291 293 299 302 295 295 298 301 302 305 305 305 303 301 300 298 297 295
Wind_Speed_850mb
5 7 6 3 4 8 5 7 5 6 3 3 14 14 16 10 3 6 33 20 20 28 28 21 17 14 14 15 16 17 18 18 18 18 17 15 13 11 13 12 12 16 19 19 21 22 21 19 21
3 5 5 3 7 4 9 5 12 9 22 33 23 14 11 5 10 24 38 26 18 21 25 19 16 18 17 17 18 19 20 20 20 20 20 20 19 18 17 15 13 12 12 10 11 13 17 16 15
5 7 3 6 5 7 9 7 11 20 38 8 10 13 10 16 16 34 27 34 24 25 22 17 16 19 18 18 18 18 19 19 19 18 18 19 20 22 22 21 20 19 18 17 18 17 16 16 13
7 5 5 6 8 7 9 9 13 20 8 12 27 11 9 8 25 22 35 34 28 22 22 18 15 18 18 18 18 17 18 20 21 19 19 20 21 22 21 21 21 22 22 22 22 23 21 17 13
9 4 4 2 7 7 7 18 29 13 15 19 16 9 8 13 15 29 32 33 25 22 21 19 17 18 18 19 21 24 23 23 21 19 19 23 20 20 21 22 22 22 22 22 22 22 20 19 17
6 4 4 7 9 8 8 35 21 13 20 23 15 20 12 27 24 36 29 33 23 14 23 23 24 22 24 27 26 20 19 18 18 17 17 17 16 14 12 11 15 14 14 14 13 14 13 14 15
10 7 9 8 7 7 9 30 15 17 17 17 31 10 10 31 33 34 31 33 25 24 27 29 28 25 26 24 20 18 14 12 12 7 2 1 1 3 5 7 9 9 9 9 9 9 8 8 9
10 7 8 8 8 10 10 30 28 30 15 19 31 15 13 49 46 38 38 37 30 30 29 28 26 24 22 21 18 14 10 6 4 2 2 3 5 6 7 7 7 7 7 6 6 5 6 5 5
12 6 9 10 12 12 12 11 12 22 25 18 29 14 9 52 54 50 53 47 39 35 30 30 27 25 24 21 15 7 4 3 2 2 2 4 5 6 6 7 5 4 6 6 6 5 3 1 2
11 9 18 9 10 7 13 19 30 18 21 12 27 20 37 59 64 63 64 59 48 40 38 33 30 27 28 21 14 6 1 1 2 1 2 4 5 6 6 7 8 11 14 14 14 13 11 7 4
13 12 10 12 10 16 7 15 22 32 7 26 44 36 72 71 70 66 66 60 47 45 44 40 34 28 28 22 16 8 4 2 4 3 2 1 1 4 9 12 15 16 19 19 20 19 17 15 13
8 15 19 9 8 2 7 11 10 43 19 44 37 40 79 81 79 72 68 65 60 53 51 42 38 31 28 25 18 11 7 3 4 6 6 4 2 7 13 16 19 20 22 20 20 20 21 20 19
9 9 19 9 1 6 5 4 9 14 12 28 38 54 74 80 78 70 63 58 60 55 52 46 42 36 30 26 20 15 10 5 8 11 11 8 6 11 15 17 18 17 17 15 17 18 20 24 27
15 18 10 16 11 2 7 2 14 5 5 28 45 57 71 74 74 70 66 66 63 56 51 41 39 38 32 26 20 16 11 8 12 15 14 12 11 12 15 14 12 10 9 10 13 17 22 27 30
15 12 2 9 15 7 11 7 8 6 8 38 49 56 61 64 65 63 64 64 59 58 52 46 37 43 33 26 21 17 14 15 15 17 16 14 13 12 11 8 5 2 5 10 14 18 22 25 29
14 10 12 9 15 2 6 9 4 7 16 30 39 48 53 56 61 58 56 53 50 55 52 46 39 32 30 25 19 17 18 17 17 18 18 16 14 13 10 6 5 7 10 12 16 21 26 31 36
4 10 7 7 10 8 6 8 8 8 18 20 31 41 48 52 48 59 57 53 45 50 55 42 44 35 32 26 22 20 20 19 19 19 18 16 14 13 12 11 12 14 16 19 24 28 32 37 41
8 11 5 10 12 2 6 8 8 21 18 30 36 47 52 54 53 54 55 52 49 57 53 40 40 36 32 30 27 22 23 23 23 21 19 17 16 16 15 17 19 22 24 27 31 33 35 41 46
7 12 10 5 10 9 18 14 22 25 21 26 32 28 43 42 51 49 52 54 59 59 50 46 43 43 40 37 29 21 22 24 24 21 18 16 14 16 19 24 28 29 29 32 37 39 39 41 47
12 12 9 2 4 2 9 18 12 16 17 35 44 36 35 34 44 49 57 66 64 59 52 49 45 40 33 26 18 15 19 20 18 18 19 19 20 21 25 29 30 32 34 38 41 41 41 42 45
9 12 8 7 5 6 7 12 11 8 23 19 21 24 29 27 43 56 67 73 68 60 54 50 40 28 26 26 21 18 22 21 23 27 26 25 27 30 33 35 36 38 41 43 44 43 43 44 45
11 10 10 12 9 8 5 8 9 7 10 6 15 22 21 23 31 56 68 76 70 60 53 40 28 23 23 23 20 17 17 22 25 26 27 32 36 38 41 42 44 44 45 45 44 45 44 44 43
12 9 13 9 8 4 3 3 11 2 10 12 10 13 14 17 21 43 65 77 69 56 44 33 23 20 20 20 22 20 19 19 24 28 30 35 38 42 46 48 50 49 48 47 44 41 42 46 51
14 14 16 9 6 4 12 11 10 10 12 7 7 8 9 12 18 29 51 67 62 52 41 29 24 23 26 31 32 32 31 30 31 33 36 38 41 41 42 43 45 48 43 36 38 43 47 50 53
9 12 5 2 5 9 5 7 15 9 7 10 15 8 6 13 22 35 52 61 55 47 38 31 30 32 35 38 40 40 38 37 36 37 40 40 38 37 37 38 36 37 40 45 49 52 52 53 57
8 13 10 11 9 8 4 12 10 6 7 21 22 14 9 9 18 43 50 52 48 42 37 35 35 34 33 31 30 29 31 34 38 39 38 37 37 36 36 37 40 43 46 49 50 53 56 59 61
8 8 6 8 6 5 7 9 8 7 9 14 22 22 22 23 29 46 48 43 38 35 32 29 25 24 22 21 19 19 21 25 29 33 35 35 36 37 39 39 42 46 48 51 57 63 66 66 67
7 11 8 3 7 8 6 6 9 10 12 10 12 25 30 33 37 38 37 35 32 28 24 19 15 12 9 9 12 17 21 25 28 31 34 35 36 37 39 41 46 51 56 61 63 66 67 68 69
5 5 4 8 6 8 0 10 10 19 19 21 22 33 36 36 36 35 33 30 26 23 20 17 13 9 10 14 21 27 30 32 32 36 36 37 37 38 41 46 51 53 56 59 63 65 66 66 67
4 3 7 8 7 5 7 10 5 13 19 36 37 39 38 35 33 30 28 27 25 22 18 12 8 13 17 22 26 31 32 33 34 36 34 32 34 40 46 48 54 59 62 61 61 63 62 61 63
Wind_Direction_850mb
314 218 247 263 53 64 244 242 161 167 103 24 97 114 122 63 110 181 139 139 142 169 166 186 176 165 145 127 122 118 114 110 104 102 106 112 115 108 111 113 102 98 93 84 82 87 95 93 85
174 173 204 153 98 70 262 227 182 197 140 110 85 88 62 99 125 142 152 149 146 156 165 169 165 154 141 130 121 114 108 103 99 96 95 95 94 93 96 101 100 94 93 91 71 85 102 111 107
186 203 191 105 138 190 219 212 182 153 147 127 109 75 128 139 143 146 152 144 142 145 153 157 151 147 142 136 126 118 111 105 99 97 95 93 90 89 90 93 95 93 88 83 81 84 104 117 122
201 188 88 112 225 238 208 192 169 144 189 167 131 76 112 112 148 147 145 146 147 141 152 157 152 148 146 140 132 123 115 107 101 97 94 92 88 83 81 93 95 97 91 86 84 84 89 103 124
192 167 70 181 252 260 241 188 173 161 155 158 148 168 138 172 158 154 149 151 149 141 150 157 154 149 146 138 128 119 110 102 95 89 90 95 99 102 99 95 97 95 90 88 87 87 87 89 95
171 147 95 221 240 247 266 182 175 163 160 152 116 130 148 181 179 161 149 153 152 133 143 145 142 136 134 129 122 116 113 102 91 99 106 107 111 112 112 89 91 90 91 94 100 100 98 90 92
161 120 209 195 247 289 207 181 175 171 172 189 149 120 171 186 187 161 156 162 157 154 147 146 144 138 137 134 132 127 118 110 103 104 137 203 199 132 128 114 102 94 98 106 116 110 109 96 98
212 121 174 222 217 261 194 175 202 175 193 169 170 162 188 182 176 166 169 171 168 161 157 156 155 153 150 147 139 133 120 110 95 42 63 98 127 136 141 143 137 128 115 116 108 115 111 91 98
191 98 194 212 162 249 176 168 169 181 156 170 191 186 187 173 173 174 177 179 178 173 171 169 168 162 161 163 157 143 99 105 90 47 62 116 135 142 168 166 163 121 100 99 96 97 89 97 256
171 162 209 216 192 242 270 190 151 155 161 205 193 195 166 173 178 183 184 182 184 183 184 180 180 171 170 171 171 161 180 339 323 326 126 117 140 147 151 134 111 98 91 87 81 78 70 62 44
191 197 199 254 261 280 257 185 167 139 223 199 195 177 170 176 183 191 193 190 192 193 190 187 185 178 178 186 186 189 204 258 287 257 195 214 176 133 120 114 108 100 92 84 78 73 67 55 41
177 213 182 220 327 307 169 176 171 166 203 209 203 188 174 181 187 194 200 197 200 198 197 189 187 185 186 192 191 194 210 247 264 240 243 258 221 133 123 119 110 106 96 85 74 61 50 36 25
211 191 195 167 354 345 186 179 209 204 207 180 191 179 182 185 191 197 204 207 208 204 200 194 190 186 191 195 202 205 213 245 250 234 238 240 193 148 132 125 117 107 90 73 59 46 36 28 20
205 194 214 202 183 267 115 343 168 170 194 176 185 186 187 188 193 198 204 212 215 212 206 209 201 194 196 206 211 217 224 239 245 230 231 213 181 159 143 133 122 102 81 51 33 22 17 16 13
207 143 223 222 183 188 120 352 339 323 178 177 185 188 192 196 195 204 209 215 223 225 212 208 215 197 202 207 218 222 231 242 233 220 208 194 183 173 159 152 135 73 15 7 3 358 358 356 0
149 112 161 200 153 216 161 224 263 146 169 189 190 194 199 201 205 210 219 225 224 218 211 213 225 218 203 212 218 228 232 237 224 208 200 196 191 189 193 210 250 301 322 331 332 335 341 343 346
239 174 162 171 207 139 130 214 231 122 163 182 193 196 199 206 213 217 222 227 224 213 208 214 219 208 206 207 213 224 232 225 213 208 207 205 208 216 229 254 276 294 304 315 322 325 329 333 335
175 119 88 154 197 51 146 209 258 192 192 184 189 203 203 207 216 218 221 224 222 208 206 219 204 203 206 210 211 217 216 211 207 211 221 223 230 241 257 273 289 297 304 313 316 315 320 327 328
175 137 149 228 181 148 199 211 221 218 232 230 212 221 222 211 219 220 218 218 204 200 205 199 199 202 208 211 215 221 226 216 214 219 231 237 247 264 276 288 296 296 296 305 307 307 312 319 324
204 178 179 44 112 125 166 242 234 210 238 238 238 244 222 217 207 210 204 198 197 199 200 199 202 206 211 227 234 236 223 218 227 239 243 243 252 268 284 289 294 295 293 300 304 305 308 315 322
192 156 168 161 77 49 100 306 247 224 226 225 233 234 210 213 205 200 200 198 197 199 202 202 199 207 219 219 228 226 218 231 238 243 254 264 268 275 284 287 291 289 288 293 298 299 303 309 315
210 166 136 132 128 195 165 257 258 265 235 195 153 167 181 198 204 207 205 199 199 202 200 197 203 217 224 230 237 250 261 262 258 261 270 269 268 272 275 278 278 278 279 286 287 290 295 301 307
232 146 164 145 98 122 226 126 259 170 242 215 184 173 188 203 219 217 210 202 199 199 195 197 209 219 229 235 242 257 270 278 274 269 274 277 272 274 277 275 273 274 276 276 276 282 291 297 301
143 75 51 54 77 260 214 166 271 200 214 173 184 187 210 223 227 219 210 194 191 192 195 203 213 222 230 234 241 248 257 263 267 266 272 277 279 278 279 272 267 267 270 269 278 285 291 295 298
103 93 56 67 207 228 150 142 249 300 247 182 162 162 219 216 211 199 192 187 189 193 198 205 214 224 231 234 239 246 253 258 261 266 272 273 272 274 273 270 265 267 273 280 286 291 294 296 296
180 158 156 180 174 204 86 221 251 304 45 120 130 123 122 155 178 179 179 181 187 192 199 208 215 221 227 233 241 249 256 263 269 273 273 271 272 273 274 276 281 286 289 291 293 293 294 294 293
182 187 227 65 42 100 211 290 309 72 77 108 124 121 109 122 145 163 169 176 182 189 196 200 207 219 230 241 251 262 273 279 282 283 283 283 285 286 287 289 290 291 292 292 293 292 293 292 292
166 177 78 101 217 226 278 278 237 209 192 165 145 133 132 134 143 153 162 174 181 185 189 195 205 219 234 260 279 291 296 297 296 296 299 298 294 290 290 290 291 292 293 294 294 294 293 291 291
129 138 130 133 132 157 348 265 214 205 188 180 177 164 157 152 151 154 161 169 179 188 196 202 208 226 265 289 299 302 303 301 297 299 302 298 293 292 295 297 298 299 300 300 298 296 295 294 293
133 202 192 121 206 94 136 278 350 253 178 172 176 176 173 170 169 175 181 186 187 188 189 202 247 283 290 296 301 299 294 291 293 299 302 295 295 298 301 302 305 305 305 303 301 300 298 297 295